Погода в Джербе

Тунис     33°47′37″N   10°52′40″E
темп.,
°C
ветер,
м/с
пор.,
м/с
влажн.,
%
обл.,
%
осадки,
мм/ч
давл.,
гПа
погр.,
м
5 августа, чт
чт501:00+29ююв45744 0.0 101148
04:00+31ю55361 0.0 101038
07:00+29ссв67700 0.0 1012140
10:00+31ссв76640 0.0 1014343
13:00+30св65695 0.0 1014445
16:00+30св87701 0.0 1011406
19:00+28всв77760 0.0 1011389
22:00+27в56810 0.0 1012263
6 августа, пт
пт601:00+27св56820 0.0 1012227
04:00+27св55750 0.0 1010236
07:00+28всв44680 0.0 1011445
10:00+30всв44600 0.0 1013571
13:00+31в43540 0.0 1011575
16:00+30всв76560 0.0 1009378
19:00+28всв69710 0.0 1009334
22:00+28вюв58750 0.0 1011270
7 августа, сб
сб701:00+28юв57760 0.0 1010240
04:00+27юв57760 0.0 1009233
07:00+28вюв46690 0.0 1010305
10:00+31вюв56600 0.0 1010456
13:00+31вюв77570 0.0 1010447
16:00+31в88590 0.0 1008312
19:00+29вюв812750 0.0 1008241
22:00+28юв712800 0.0 1010287
8 августа, вс
вс801:00+28юв57810 0.0 1009167
04:00+28вюв57810 0.0 1009129
07:00+29вюв45740 0.0 1010166
10:00+32вюв55600 0.0 1012286
13:00+33вюв55520 0.0 1012287
16:00+33вюв78550 0.0 1011222
19:00+29вюв711780 0.0 1012219
22:00+29вюв813770 0.0 1013233
9 августа, пн
пн901:00+28вюв610730 0.0 1014218
04:00+28вюв57770 0.0 1014147
07:00+29вюв69690 0.0 1015245
10:00+31вюв78550 0.0 1016342
13:00+33вюв67450 0.0 1015318
16:00+32в78510 0.0 1015261
19:00+29в69710 0.0 1015154
22:00+28в57800 0.0 1016174